Weather History for Thedford, NE

Change the Weather History Date:

Thursday, December 6, 2012

  Actual Average (KLBF) Record (KLBF)
Temperature  
Mean Temperature 42 °F 27 °F  
Max Temperature 55 °F 41 °F 76 °F (1939)
Min Temperature 29 °F 13 °F -15 °F (1972)
Degree Days  
Heating Degree Days 23 38  
Month to date heating degree days 225  
Since 1 July heating degree days 1776  
Cooling Degree Days 0 0  
Month to date cooling degree days 0  
Year to date cooling degree days 768  
Moisture  
Dew Point 23 °F    
Average Humidity 50    
Maximum Humidity 73    
Minimum Humidity 31    
Precipitation  
Precipitation 0.00 in 0.01 in 0.42 in (1883)
Month to date precipitation 0.08  
Year to date precipitation 19.90  
Snow  
Snow 0.00 in 0.10 in 3.40 in (1994)
Month to date snowfall 0.8  
Since 1 July snowfall 7.0  
Snow Depth -    
Sea Level Pressure  
Sea Level Pressure 29.96 in    
Wind  
Wind Speed 9 mph (North)    
Max Wind Speed 23 mph    
Max Gust Speed 33 mph    
Visibility 10 miles    
Events      
T = Trace of Precipitation, MM = Missing Value Source: NWS Daily Summary

Daily Weather History Graph

Daily Weather History Graph

Search for Another Location

Airport:

Trip Planner

Search our weather history database for the weather conditions in past years. The results will help you decide how hot, cold, wet, or windy it might be!

Date:

Astronomy

Dec. 06, 2012 Rise Set
Actual Time 7:56 AM CST 5:10 PM CST
Civil Twilight 7:24 AM CST 5:42 PM CST
Nautical Twilight 6:49 AM CST 6:17 PM CST
Astronomical Twilight 6:16 AM CST 6:51 PM CST
Moon 12:07 AM CST (12/6) 12:44 PM CST (12/6)
Length of Visible Light 10h 17m
Length of Day
9h 14m
Waning Gibbous, 49% of the Moon is Illuminated
Dec 6
Waning Gibbous
Dec 13
New
Dec 19
First Quarter
Dec 28
Full
Jan 4
Last Quarter

Hourly Weather History & Observations

Time (CST) Temp. Windchill Dew Point Humidity Pressure Visibility Wind Dir Wind Speed Gust Speed Precip Events Conditions
12:15 AM 55.4 °F - 36.3 °F 49% 29.80 in 10.0 mi NW 10.4 mph 16.1 mph N/A   Clear
12:35 AM 54.9 °F - 37.8 °F 53% 29.81 in 10.0 mi NNW 11.5 mph - N/A   Clear
12:55 AM 54.5 °F - 37.8 °F 53% 29.81 in 10.0 mi NNW 10.4 mph - N/A   Clear
1:15 AM 53.4 °F - 37.4 °F 55% 29.80 in 10.0 mi NW 5.8 mph - N/A   Clear
1:35 AM 52.7 °F - 37.4 °F 56% 29.80 in 10.0 mi NNW 6.9 mph - N/A   Clear
1:55 AM 50.4 °F - 37.4 °F 61% 29.83 in 10.0 mi NNW 4.6 mph - N/A   Scattered Clouds
2:15 AM 49.6 °F - 36.9 °F 61% 29.83 in 10.0 mi NNW 4.6 mph - N/A   Scattered Clouds
2:35 AM 47.1 °F - 35.8 °F 65% 29.84 in 10.0 mi NNW 4.6 mph - N/A   Clear
2:55 AM 49.1 °F - 34.5 °F 57% 29.85 in 10.0 mi North 8.1 mph - N/A   Clear
3:15 AM 49.5 °F - 33.3 °F 54% 29.85 in 10.0 mi North 10.4 mph - N/A   Scattered Clouds
3:35 AM 50.9 °F - 33.3 °F 51% 29.87 in 10.0 mi North 16.1 mph 23.0 mph N/A   Scattered Clouds
3:55 AM 48.0 °F - 32.4 °F 55% 29.89 in 10.0 mi North 23.0 mph 33.4 mph N/A   Clear
4:15 AM 46.0 °F 40.2 °F 29.5 °F 52% 29.91 in 10.0 mi North 12.7 mph 18.4 mph N/A   Clear
4:35 AM 45.3 °F 38.7 °F 23.7 °F 43% 29.91 in 10.0 mi North 15.0 mph 26.5 mph N/A   Clear
4:55 AM 43.7 °F 39.1 °F 25.9 °F 50% 29.92 in 10.0 mi North 8.1 mph 17.3 mph N/A   Clear
5:15 AM 42.8 °F 35.8 °F 25.2 °F 50% 29.94 in 10.0 mi NNE 13.8 mph 18.4 mph N/A   Clear
5:35 AM 42.8 °F 36.6 °F 21.9 °F 44% 29.95 in 10.0 mi North 11.5 mph 18.4 mph N/A   Clear
5:55 AM 42.1 °F 37.1 °F 21.2 °F 43% 29.96 in 10.0 mi North 8.1 mph 16.1 mph N/A   Clear
7:35 AM 39.6 °F 34.0 °F 21.0 °F 48% 29.98 in 10.0 mi North 8.1 mph - N/A   Mostly Cloudy
7:55 AM 40.6 °F 33.4 °F 17.2 °F 39% 29.98 in 10.0 mi North 12.7 mph 16.1 mph N/A   Mostly Cloudy
8:15 AM 40.5 °F 35.1 °F 18.3 °F 41% 29.98 in 10.0 mi North 8.1 mph - N/A   Overcast
8:35 AM 40.6 °F 34.8 °F 18.9 °F 42% 29.99 in 10.0 mi NNW 9.2 mph - N/A   Overcast
8:55 AM 41.2 °F 34.5 °F 14.4 °F 34% 30.01 in 10.0 mi NNW 11.5 mph 18.4 mph N/A   Overcast
9:15 AM 41.5 °F 34.6 °F 14.0 °F 33% 30.02 in 10.0 mi NNW 12.7 mph - N/A   Overcast
9:35 AM 41.2 °F 33.7 °F 13.3 °F 32% 30.03 in 10.0 mi NNW 13.8 mph - N/A   Overcast
9:55 AM 41.0 °F 34.3 °F 13.1 °F 32% 30.04 in 10.0 mi NNW 11.5 mph 19.6 mph N/A   Overcast
10:15 AM 41.0 °F 33.5 °F 13.6 °F 33% 30.05 in 10.0 mi North 13.8 mph 19.6 mph N/A   Overcast
10:35 AM 41.0 °F 33.5 °F 14.4 °F 34% 30.05 in 10.0 mi North 13.8 mph 21.9 mph N/A   Overcast
10:55 AM 41.0 °F 33.1 °F 14.5 °F 34% 30.05 in 10.0 mi North 15.0 mph 23.0 mph N/A   Overcast
11:15 AM 42.3 °F 33.8 °F 13.5 °F 31% 30.05 in 10.0 mi North 18.4 mph 23.0 mph N/A   Overcast
11:35 AM 43.2 °F 35.3 °F 17.2 °F 35% 30.05 in 10.0 mi NNW 17.3 mph 25.3 mph N/A   Overcast
11:55 AM 41.4 °F 32.4 °F 19.6 °F 42% 30.04 in 10.0 mi North 19.6 mph - N/A   Overcast
12:15 PM 40.5 °F 32.1 °F 20.5 °F 45% 30.03 in 10.0 mi NNW 16.1 mph 24.2 mph N/A   Overcast
12:35 PM 39.7 °F 31.9 °F 23.4 °F 52% 30.03 in 10.0 mi North 13.8 mph - N/A   Overcast
12:55 PM 40.3 °F 33.0 °F 21.6 °F 47% 30.03 in 10.0 mi NNW 12.7 mph 19.6 mph N/A   Overcast
1:15 PM 40.5 °F 32.8 °F 19.4 °F 43% 30.03 in 10.0 mi North 13.8 mph 20.7 mph N/A   Overcast
1:35 PM 40.1 °F 33.2 °F 20.3 °F 45% 30.03 in 10.0 mi North 11.5 mph 19.6 mph N/A   Overcast
1:55 PM 39.9 °F 32.9 °F 20.3 °F 45% 30.02 in 10.0 mi NNW 11.5 mph 18.4 mph N/A   Overcast
2:15 PM 39.7 °F 33.7 °F 20.8 °F 47% 30.01 in 10.0 mi North 9.2 mph 17.3 mph N/A   Overcast
2:35 PM 40.6 °F 34.3 °F 20.1 °F 44% 29.99 in 10.0 mi North 10.4 mph - N/A   Overcast
2:55 PM 40.5 °F 34.1 °F 19.4 °F 43% 29.99 in 10.0 mi North 10.4 mph - N/A   Overcast
3:15 PM 40.3 °F 34.4 °F 18.9 °F 42% 29.99 in 10.0 mi North 9.2 mph - N/A   Overcast
3:35 PM 40.5 °F 36.5 °F 19.8 °F 44% 29.99 in 10.0 mi North 5.8 mph - N/A   Overcast
3:55 PM 40.1 °F 34.7 °F 19.0 °F 43% 29.99 in 10.0 mi North 8.1 mph - N/A   Overcast
4:15 PM 40.1 °F 36.9 °F 19.2 °F 43% 29.98 in 10.0 mi North 4.6 mph - N/A   Overcast
4:35 PM 40.1 °F 36.9 °F 18.7 °F 42% 29.98 in 10.0 mi North 4.6 mph - N/A   Overcast
4:55 PM 40.1 °F 36.1 °F 18.1 °F 41% 29.98 in 10.0 mi NE 5.8 mph - N/A   Overcast
5:15 PM 39.2 °F 35.9 °F 18.5 °F 43% 29.98 in 10.0 mi NNE 4.6 mph - N/A   Overcast
5:35 PM 38.7 °F 36.3 °F 18.9 °F 45% 29.98 in 10.0 mi NNE 3.5 mph - N/A   Overcast
5:55 PM 37.8 °F - 19.4 °F 48% 29.98 in 10.0 mi Calm Calm - N/A   Overcast
6:15 PM 36.0 °F - 19.4 °F 51% 29.98 in 10.0 mi Calm Calm - N/A   Overcast
6:35 PM 35.1 °F - 19.4 °F 53% 29.98 in 10.0 mi Calm Calm - N/A   Mostly Cloudy
6:55 PM 34.7 °F - 20.3 °F 56% 29.98 in 10.0 mi Calm Calm - N/A   Overcast
7:15 PM 34.2 °F - 20.7 °F 58% 29.99 in 10.0 mi Calm Calm - N/A   Overcast
7:35 PM 34.0 °F - 20.8 °F 59% 29.99 in 10.0 mi Calm Calm - N/A   Overcast
7:55 PM 34.0 °F - 21.7 °F 61% 29.98 in 10.0 mi Calm Calm - N/A   Overcast
8:35 PM 34.2 °F 30.0 °F 22.5 °F 62% 29.99 in 10.0 mi WNW 4.6 mph - N/A   Overcast
8:55 PM 34.5 °F - 22.1 °F 61% 29.98 in 10.0 mi Calm Calm - N/A   Overcast
9:15 PM 33.3 °F - 22.1 °F 64% 29.98 in 10.0 mi Calm Calm - N/A   Overcast
9:35 PM 32.5 °F - 22.1 °F 65% 29.98 in 10.0 mi Calm Calm - N/A   Overcast
9:55 PM 31.6 °F - 21.7 °F 67% 29.97 in 10.0 mi Calm Calm - N/A   Mostly Cloudy
10:15 PM 29.1 °F - 20.3 °F 70% 29.97 in 10.0 mi Calm Calm - N/A   Scattered Clouds
10:35 PM 29.3 °F - 21.0 °F 71% 29.98 in 10.0 mi Calm Calm - N/A   Mostly Cloudy
10:55 PM 30.0 °F - 21.4 °F 70% 29.98 in 10.0 mi Calm Calm - N/A   Overcast
11:15 PM 30.4 °F - 22.6 °F 73% 29.97 in 10.0 mi Calm Calm - N/A   Overcast
11:35 PM 30.4 °F - 22.3 °F 72% 29.96 in 10.0 mi Calm Calm - N/A   Overcast
11:55 PM 30.6 °F - 22.6 °F 72% 29.96 in 10.0 mi Calm Calm - N/A   Overcast